Location: ?????
(42.2640°N, 43.4211°E)
Time: 14:48:45
(UTC+00:00)

Cosmos 1300 - Pass Details

Date: 07 August 2020
Orbit: 511 x 514 km, 82.5° (Epoch: 19 September)

Event Time Altitude Azimuth Distance (km) Brightness Sun altitude
Rises 01:08:14 0° 168° (SSE) 2,616 6.1 -10.2°
Reaches altitude 10° 01:10:27 10° 160° (SSE) 1,735 5.2 -9.8°
Maximum altitude 01:13:58 37° 92° (E) 815 4.3 -9.3°
Drops below altitude 10° 01:17:31 10° 25° (NNE) 1,749 6.3 -8.7°
Sets 01:19:45 0° 17° (NNE) 2,641 7.1 -8.4°
